30.06.2024;16:00;10
30.06.2024;15:00;10
30.06.2024;14:00;8
30.06.2024;13:00;10
30.06.2024;12:00;12
30.06.2024;11:00;8
30.06.2024;10:00;6
30.06.2024;09:00;6
30.06.2024;08:00;5
30.06.2024;07:00;9
30.06.2024;06:00;11
30.06.2024;05:00;9
30.06.2024;04:00;11
30.06.2024;03:00;13
30.06.2024;02:00;22
30.06.2024;01:00;30
30.06.2024;00:00;32
29.06.2024;23:00;24
29.06.2024;22:00;29
29.06.2024;21:00;34
29.06.2024;20:00;43
29.06.2024;19:00;30
29.06.2024;18:00;40
29.06.2024;17:00;45
29.06.2024;16:00;27
29.06.2024;15:00;27
29.06.2024;14:00;28
29.06.2024;13:00;22
29.06.2024;12:00;23
29.06.2024;11:00;15
29.06.2024;10:00;15
29.06.2024;09:00;18
29.06.2024;08:00;18
29.06.2024;07:00;19
29.06.2024;06:00;21
29.06.2024;05:00;16
29.06.2024;04:00;18
29.06.2024;03:00;28
29.06.2024;02:00;34
29.06.2024;01:00;40
29.06.2024;00:00;46
28.06.2024;23:00;60
28.06.2024;22:00;57
28.06.2024;21:00;49
28.06.2024;20:00;46
28.06.2024;19:00;33
28.06.2024;18:00;35
28.06.2024;17:00;35
